Regional Weather Roundup
Issued by NWS

Home | Current Version | Previous Version | Text Only | Print | Product List | Glossary On
Versions: 1 2 3 4 5 6 7 8 9 10 11 12 13 14 15 16 17 18 19 20 21 22 23 24 25 26 27 28 29 30 31 32 33 34 35 36 37 38 39 40 41 42 43 44 45 46 47 48 49 50
000
ASUS42 KFFC 160803
RWRGA
WEATHER ROUNDUP FOR GEORGIA
NATIONAL WEATHER SERVICE PEACHTREE CITY GA
400 AM EDT TUE SEP 16 2014

NOTE: "FAIR" INDICATES FEW OR NO CLOUDS BELOW 12,000 FEET WITH NO
SIGNIFICANT WEATHER AND/OR OBSTRUCTIONS TO VISIBILITY.

* = USE WITH CAUTION. THE STATIONS MARKED WITH AN ASTERISK MAY NOT
REPORT WEATHER SUCH AS PRECIPITATION, FOG, OR THUNDER AND ARE NOT
QUALITY CONTROLLED BY NWS.

THE REMARK "TC" DENOTES TEMPERATURE READING IN DEGREES CELSIUS.

GAZ001>058-160900-
NORTH GEORGIA

CITY           SKY/WX    TMP DP  RH WIND       PRES   REMARKS
ATLANTA        CLOUDY    72  70  93 CALM      30.10S FOG
ATHENS         MOCLDY    70  69  97 CALM      30.09F
CHAMBLEE       CLOUDY    71  69  93 CALM      30.11S FOG
PEACHTREE CITY CLOUDY    72  71  97 CALM      30.10F FOG
ROME           MOCLDY    70  70 100 CALM      30.08F FOG
WEST ATLANTA   CLOUDY    72  70  93 CALM      30.10S
GAINESVILLE    CLOUDY    71  68  90 CALM      30.13F
CARTERSVILLE   CLOUDY    69  68  96 CALM      30.10F FOG


CITY           SKY/WX    TMP DP  RH WIND       PRES   REMARKS
DALTON*        MOCLDY    68  68 100 CALM      30.10F FOG
MARIETTA       CLOUDY    71  71  98 CALM      30.11S
$$

GAZ059>098-102>109-160900-
CENTRAL GEORGIA

CITY           SKY/WX    TMP DP  RH WIND       PRES   REMARKS
AUGUSTA-BUSH   CLOUDY    73  73 100 CALM      30.07S FOG
AUGUSTA-DANIEL CLOUDY    74  72  93 N5        30.09S FOG
COLUMBUS       CLOUDY    74  71  91 CALM      30.07F
MACON          CLEAR     70  70 100 CALM      30.08R
ROBINS AFB     PTCLDY    71  70  98 N1        30.08R


CITY           SKY/WX    TMP DP  RH WIND       PRES   REMARKS
LAGRANGE*      CLOUDY    74  74  99 CALM      30.10R
SYLVANIA*      MOCLDY    74  73  98 CALM      30.08S
MILLEDGEVILLE* CLOUDY    73  73 100 CALM      30.09S FOG
$$

GAZ099>101-110>166-160900-
SOUTH GEORGIA

CITY           SKY/WX    TMP DP  RH WIND       PRES   REMARKS
SAVANNAH       CLOUDY    74  71  91 CALM      30.06S
VALDOSTA       MOCLDY    74  73  97 S3        30.06F
ALMA           MOCLDY    72  71  97 CALM      30.07F
ST SIMONS      MOCLDY    76  72  87 W7        30.05F
FT STEWART     CLOUDY    74  73  96 CALM      30.05S
ALBANY         CLOUDY    76  74  93 S3        30.07F
HUNTER AFB     CLOUDY    73  73 100 NW5       30.04S FOG
MOODY AFB      CLOUDY    74  73  95 SE3       30.06F
BRUNSWICK      MOCLDY    73  72  94 W3        30.06F


CITY           SKY/WX    TMP DP  RH WIND       PRES   REMARKS
BAINBRIDGE*    CLOUDY    79  77  94 CALM      30.05F
MOULTRIE*      CLOUDY    75  75 100 CALM      30.07F
VIDALIA*       FOG       72  72 100 CALM      30.07F VSB 1/4
WAYCROSS*      CLOUDY    76  76  99 N3        30.07F
DOUGLAS*       CLOUDY    75  73  94 E3        30.09F
$$


USA.gov is the U.S. government's official web portal to all federal, state and local government web resources and services.